Location: Kapuskasing
(49.3803°N, 82.4001°W)
Time: 11:00:33
(UTC-04:00)

Envisat - Pass Details

Date: 19 March 2026
Orbit: 761 x 762 km, 98.4° (Epoch: 19 April)

Event Time Altitude Azimuth Distance (km) Brightness Sun altitude
Rises 04:30:27 0° 13° (NNE) 3,237 7.0 -28.7°
Reaches altitude 10° 04:32:46 10° 12° (NNE) 2,307 6.1 -28.4°
Enters shadow 04:37:05 63° 348° (NNW) 853 3.2 -27.9°
